Location: downtown San Diego
(32.7310°N, 117.1990°W)
Time: 14:31:06
(UTC-07:00)

Cosmos 864 Rocket - Pass Details

Date: 12 July 2018
Orbit: 953 x 992 km, 82.9° (Epoch: 14 July)

Event Time Altitude Azimuth Distance (km) Brightness Sun altitude
Rises 23:14:04 0° 354° (N) 3,646 8.5 -30.4°
Reaches altitude 10° 23:16:35 10° 354° (N) 2,693 7.6 -30.6°
Enters shadow 23:22:12 76° 354° (N) 985 4.5 -31.2°
